Weather Roundup
Issued by NWS Chicago, IL

Home | Current Version | Previous Version | Text Only | Print | Product List | Glossary Off
Versions: 1 2 3 4 5 6 7 8 9 10 11 12 13 14 15 16 17 18 19 20 21 22 23 24 25 26 27 28 29 30 31 32 33 34 35 36 37 38 39 40 41 42 43 44 45 46 47 48 49 50

000
NZUS59 KLOT 281603
HRRLOT

CHICAGO AREA WEATHER ROUNDUP
NATIONAL WEATHER SERVICE CHICAGO/ROMEOVILLE IL
1100 AM CDT THU APR 28 2016

NOTE: "FAIR" INDICATES FEW OR NO CLOUDS BELOW 12,000 FEET WITH NO
SIGNIFICANT WEATHER AND/OR OBSTRUCTIONS TO VISIBILITY.

* THESE STATIONS ARE NOT UNDER NWS QUALITY CONTROL. THEY ALSO MAY NOT
  REPORT WEATHER SUCH AS PRECIPITATION OR FOG.

ILZ005-006-012>014-019>023-281700-
NORTHEAST ILLINOIS

CITY           SKY/WX    TMP DP  RH WIND       PRES   REMARKS
OHARE          CLOUDY    44  39  82 NE12G22   29.89R
MIDWAY         CLOUDY    48  43  82 NE7       29.88R FOG
AURORA           N/A     48  44  86 E10       29.88S FOG
LANSING*       CLOUDY    50  45  84 SE7       29.88R
WAUKEGAN       CLOUDY    41  35  79 NE10      29.92R
DUPAGE AIRPORT CLOUDY    46  40  79 E10       29.87S
WHEELING       CLOUDY    43  37  79 NE9       29.92R
MORRIS*        CLOUDY    49  47  92 E3        29.86S FOG
$$

WIZ051-052-058>065-066-070>072-281700-
SOUTHEAST WISCONSIN

CITY           SKY/WX    TMP DP  RH WIND       PRES   REMARKS
MILWAUKEE      CLOUDY    41  34  76 E20       29.95R
KENOSHA*       CLOUDY    42  34  73 E16       29.94R
RACINE*        CLOUDY    41  34  76 E13       29.96R
BURLINGTON     CLOUDY    40  33  74 E15       29.93R
WAUKESHA       CLOUDY    39  32  75 E16G23    29.95R
$$

INZ001>003-010>013-019-020-281700-
NORTHWEST INDIANA

CITY           SKY/WX    TMP DP  RH WIND       PRES   REMARKS
GARY*          CLOUDY    52  50  93 E6        29.88R
MICHIGAN CITY* NOT AVBL
RENSSELAER*    NOT AVBL
VALPARAISO     CLOUDY    50  46  86 E9        29.88R
$$

LMZ740>746-281700-
SOUTHERN LAKE MICHIGAN

STATION/POSITION TIME  SKY/WX   TEMP WIND        PRES    VSBY
                                AIR  DIR/SP/G
                 (UTC)          (F)  (DEG/KT/KT) (MB)    (MI)
HARRISON CRIB    1500            44   70/ 14/ 15   N/A
BURNHAM HARBOR   1600            45   50/  9/ 13   N/A
CALUMET HARBOR   1500            47   70/  7/  9 1010.9R
BURNS HARBOR     1508            48   90/  7/ 15 1011.9R
MICHIGAN CITY    1500            46  100/ 11/ 13   N/A
$$

ABBREVIATIONS USED IN REMARKS
   TC - TEMPERATURE IN CELSIUS
  WCI - WIND CHILL INDEX
   HX - HEAT INDEX
  VSB - VISIBILITY
$$




USA.gov is the U.S. government's official web portal to all federal, state and local government web resources and services.